Estación de Tierras Nobles
Ultimos registro cada 15 minutos 31
| N° | Estación | Fecha / Hora | Temperatura | Humedad | Lluvia | Velocidad | Dirección | Radiación | Presion |
| 31 | Tierras Nobles | 07-05-2026 07:30 | 5,9 | 62 | 0 | 0 | 121 | 0 | 1025,6 |
| 30 | Tierras Nobles | 07-05-2026 07:15 | 6,1 | 62 | 0 | 0 | 121 | 0 | 1025,5 |
| 29 | Tierras Nobles | 07-05-2026 07:00 | 6,3 | 63 | 0 | 0 | 121 | 0 | 1025,3 |
| 28 | Tierras Nobles | 07-05-2026 06:45 | 6,7 | 62 | 0 | 0 | 121 | 0 | 1025,1 |
| 27 | Tierras Nobles | 07-05-2026 06:30 | 6,9 | 61 | 0 | 0 | 121 | 0 | 1025 |
| 26 | Tierras Nobles | 07-05-2026 06:15 | 7 | 62 | 0,2 | 0 | 126 | 0 | 1025 |
| 25 | Tierras Nobles | 07-05-2026 06:00 | 7,1 | 62 | 0 | 0 | 129 | 0 | 1024,9 |
| 24 | Tierras Nobles | 07-05-2026 05:45 | 7,2 | 62 | 0,6 | 0 | 129 | 0 | 1024,7 |
| 23 | Tierras Nobles | 07-05-2026 05:30 | 7,3 | 63 | 1 | 0 | 129 | 0 | 1024,6 |
| 22 | Tierras Nobles | 07-05-2026 05:15 | 7,3 | 64 | 0,2 | 0 | 129 | 0 | 1024,6 |
| 21 | Tierras Nobles | 07-05-2026 05:00 | 7,4 | 65 | 0,6 | 0 | 129 | 0 | 1024,3 |
| 20 | Tierras Nobles | 07-05-2026 04:45 | 7,5 | 65 | 0,4 | 0 | 129 | 0 | 1024,2 |
| 19 | Tierras Nobles | 07-05-2026 04:30 | 7,6 | 66 | 0 | 0 | 124 | 0 | 1024 |
| 18 | Tierras Nobles | 07-05-2026 04:15 | 7,8 | 67 | 0 | 0 | 124 | 0 | 1024 |
| 17 | Tierras Nobles | 07-05-2026 04:00 | 7,8 | 68 | 0 | 0 | 124 | 0 | 1023,8 |
| 16 | Tierras Nobles | 07-05-2026 03:45 | 8 | 68 | 0 | 0 | 124 | 0 | 1023,7 |
| 15 | Tierras Nobles | 07-05-2026 03:30 | 8 | 67 | 0 | 0 | 124 | 0 | 1023,7 |
| 14 | Tierras Nobles | 07-05-2026 03:15 | 8 | 67 | 0 | 0 | 124 | 0 | 1023,6 |
| 13 | Tierras Nobles | 07-05-2026 03:00 | 7,8 | 67 | 0 | 0 | 124 | 0 | 1023,6 |
| 12 | Tierras Nobles | 07-05-2026 02:45 | 7,6 | 66 | 0 | 0,4 | 124 | 0 | 1023,6 |
| 11 | Tierras Nobles | 07-05-2026 02:30 | 7,6 | 66 | 0 | 0,4 | 165 | 0 | 1023,5 |
| 10 | Tierras Nobles | 07-05-2026 02:15 | 7,6 | 67 | 0 | 0 | 165 | 0 | 1023,6 |
| 9 | Tierras Nobles | 07-05-2026 02:00 | 7,7 | 68 | 0 | 0 | 115 | 0 | 1023,4 |
| 8 | Tierras Nobles | 07-05-2026 01:45 | 7,7 | 69 | 0 | 0 | 115 | 0 | 1023 |
| 7 | Tierras Nobles | 07-05-2026 01:30 | 7,7 | 70 | 0 | 0 | 115 | 0 | 1023 |
| 6 | Tierras Nobles | 07-05-2026 01:15 | 7,8 | 72 | 0 | 0 | 115 | 0 | 1022,8 |
| 5 | Tierras Nobles | 07-05-2026 01:00 | 7,9 | 72 | 0 | 0 | 115 | 0 | 1022,6 |
| 4 | Tierras Nobles | 07-05-2026 00:45 | 8 | 73 | 0 | 0 | 115 | 0 | 1022,5 |
| 3 | Tierras Nobles | 07-05-2026 00:30 | 8,3 | 74 | 0 | 0 | 115 | 0 | 1022,3 |
| 2 | Tierras Nobles | 07-05-2026 00:15 | 8,4 | 74 | 0 | 0 | 115 | 0 | 1022,5 |
| 1 | Tierras Nobles | 07-05-2026 00:00 | 8,4 | 76 | 0 | 0 | 115 | 0 | 1022,4 |